Regional Weather Roundup
Issued by NWS Charleston, SC

Home | Current Version | Previous Version | Text Only | Print | Product List | Glossary On
Versions: 1 2 3 4 5 6 7 8 9 10 11 12 13 14 15 16 17 18 19 20 21 22 23 24 25 26 27 28 29 30 31 32 33 34 35 36 37 38 39 40 41 42 43 44 45 46 47 48 49 50
000
ASUS42 KCHS 070028
RWRCHS

REGIONAL WEATHER ROUNDUP
NATIONAL WEATHER SERVICE CHARLESTON SC
800 PM EDT FRI MAY 06 2016

NOTE: "FAIR" INDICATES FEW OR NO CLOUDS BELOW 12,000 FEET WITH NO
SIGNIFICANT WEATHER AND/OR OBSTRUCTIONS TO VISIBILITY.

NOT ALL STATIONS ARE QUALITY CONTROLLED. USE DATA WITH CAUTION...
ESPECIALLY DEWPOINT OBSERVATIONS.

SCZ027-030-031-034>040-042>050-070100-
...SOUTHEAST SOUTH CAROLINA...

CITY           SKY/WX    TMP DP  RH WIND       PRES   REMARKS
N CHARLESTON   MOCLDY    65  49  56 W7        29.83R
6HR MIN TEMP:  65; 6HR MAX TEMP:  74;

WATERFRONT PRK   N/A     67  49  52 W6        29.80R
MOUNT PLEASANT FAIR      66  52  59 NW8       29.84R
JOHNS ISLAND   FAIR      61  54  77 W5        29.84R
PINOPOLIS        N/A     66  54  63 NW16      29.75R
MONCKS CORNER  DRIZZLE   61  43  51 CALM      29.84R
SUMMERVILLE    MOCLDY    63  50  63 NW5       29.86R
BEAUFORT MCAS  PTCLDY    64  50  60 CALM      29.84R THUNDER
6HR MIN TEMP:  64; 6HR MAX TEMP:  73; 6HR PCP: TRACE;

BEAUFORT ARPT  FAIR      63  52  67 W3        29.84R
HILTON HEAD IS PTCLDY    66  46  48 CALM      29.86R
WALTERBORO     CLOUDY    63  50  63 NW8G17    29.88R
ALLENDALE      MOCLDY    61  52  72 E3        29.87R

...SOUTHERN MIDLANDS AND PEE DEE...

CITY           SKY/WX    TMP DP  RH WIND       PRES   REMARKS
GEORGETOWN     FAIR      59  48  67 W3        29.83R
KINGSTREE      FAIR      61  46  59 SW3       29.82R
ORANGEBURG     CLOUDY    58  52  80 CALM      29.84S
6HR MIN TEMP:  58; 6HR MAX TEMP:  73; 6HR PCP:  0.01;

BARNWELL       DRIZZLE   66  50  55 CALM      29.86R
AIKEN          FAIR      61  45  55 CALM      29.88R
MANNING        FAIR      61  46  59 SW3       29.83R
COLUMBIA       PTCLDY    65  49  56 SW3       29.83R
6HR MIN TEMP:  65; 6HR MAX TEMP:  73; 6HR PCP: TRACE;

SUMTER         CLEAR     63  52  67 W7        29.80R
6HR MIN TEMP:  63; 6HR MAX TEMP:  73;

FLORENCE       CLOUDY    67  47  48 NW6       29.81R
6HR MIN TEMP:  67; 6HR MAX TEMP:  73; 6HR PCP: TRACE;

MYRTLE BEACH   MOCLDY    64  48  55 NE8       29.82R
N MYRTLE BEACH CLOUDY    62  53  72 CALM      29.80R
6HR MIN TEMP:  62; 6HR MAX TEMP:  70; 6HR PCP: TRACE;


$$

GAZ063-065-086>088-099>101-113>116-118-119-134>141-150-070100-
...SOUTHEAST GEORGIA...

CITY           SKY/WX    TMP DP  RH WIND       PRES   REMARKS
SAVANNAH ARPT  MOCLDY    68  47  46 W3        29.84R
6HR MIN TEMP:  68; 6HR MAX TEMP:  75;

HUNTER AAF     CLEAR     67  47  48 W3        29.82R
6HR MIN TEMP:  67; 6HR MAX TEMP:  75;

FORT STEWART   PTCLDY    69  46  43 W3        29.83R
6HR MIN TEMP:  69; 6HR MAX TEMP:  74;

STATESBORO     CLEAR     69  51  53 NW9       29.86R
SYLVANIA       MOCLDY    63  55  76 CALM      29.86R
CLAXTON        FAIR      65  52  62 W5        29.86R

...CSRA...CENTRAL AND FAR SOUTHEAST GEORGIA...

CITY           SKY/WX    TMP DP  RH WIND       PRES   REMARKS
THOMSON        CLEAR     63  52  67 CALM      29.91R
AUGUSTA-BUSH   MOCLDY    66  46  48 N7        29.84R
6HR MIN TEMP:  66; 6HR MAX TEMP:  74;

AUGUSTA-DANIEL PTCLDY    68  44  42 NW3       29.85R
SWAINSBORO     FAIR      64  45  48 NW3       29.88R
VIDALIA        CLEAR     64  45  48 W5        29.87R
EASTMAN        CLOUDY    65  45  47 NW3       29.92R
HAZLEHURST     FAIR      65  47  51 CALM      29.87S
ALMA           PTCLDY    68  44  42 NW7       29.87R
6HR MIN TEMP:  68; 6HR MAX TEMP:  73;

WAYCROSS       CLEAR     65  47  52 NW3       29.88R
JESUP          FAIR      68  50  52 NW5       29.87R
BAXLEY         FAIR      68  45  42 NW3       29.87R
BRUNSWICK      CLEAR     70  54  56 CALM      29.87R
SAINT SIMONS   CLEAR     66  52  60 S5        29.85R
6HR MIN TEMP:  66; 6HR MAX TEMP:  72;


$$

SCZ027-028-034-036>038-045-046-048>050-GAZ119-141-070100-
...LAKE AND SUPPLEMENTAL COASTAL OBSERVATIONS...

STATION/POSITION TIME  TEMP    WIND        PRES    WAVE   SWELL
                       AIR SEA DIR/SP/G            HT/PER HT/PER/DIR
                 (UTC) (F)     (DEG/KT/KT) (MB)    (FT/S) (FT/S/D)
WINYAH BAY       2300   67     290/  5     1008.0S
LAKE MURRAY      2300   67     220/  4/  7 1009.1R
ACE BASIN NERRS  NOT AVBL
FORT PULASKI     0000   69 71              1010.7R
SAPELO ISLAND    0000   71     270/  7     1011.0R

$$

ANZ835-935-AMZ111-154-330-350-352-354-370-450-454-472-070100-
...C-MAN AND BUOY OBSERVATIONS...

STATION/POSITION TIME  TEMP    WIND        PRES    WAVE   SWELL
                       AIR SEA DIR/SP/G            HT/PER HT/PER/DIR
                 (UTC) (F)     (DEG/KT/KT) (MB)    (FT/S) (FT/S/D)
BUOY 41004       2350   69 73  260/ 12/ 16 1008.9R   3/ 4   2/10
BUOY 41008       NOT AVBL
FOLLY BEACH CMAN 0000   65     280/  5/  8 1010.2R
CAPERS NEARSHORE 2308   69 70  310/ 14/ 17 1008.7R
FRIPP NEARSHORE  0008   68 69  310/  8/ 12 1009.7R


STATION/POSITION TIME  TEMP    WIND        PRES    WAVE   SWELL
                       AIR SEA DIR/SP/G            HT/PER HT/PER/DIR
                 (UTC) (F)     (DEG/KT/KT) (MB)    (FT/S) (FT/S/D)
5E ST. MARYS GA  2321      71                N/A     1/10
FRYING PAN BUOY  0000   67 72  270/ 12/ 16 1008.6R
BUOY 41025       2350   63 74  280/ 10/ 14 1007.7R   5/ 9   5/120/ 9
CAPE LOOKOUT NC  0000   63     290/  9/ 11 1007.8R
BUOY 41002       2350   69 73  290/ 12/ 16 1008.8R   8/ 8   7/280/ 8
BUOY 41010       2320   70 79  310/ 10/ 14 1010.7R
ST AUGUSTINE FL  0000   66 71   90/  5/  6 1012.2R


$$




USA.gov is the U.S. government's official web portal to all federal, state and local government web resources and services.